Ventura — ZCDT2 — position and weather

sailwx.info

Track history (hours):
 
Tides and Currents Weather Stations Pressure Air Temp Water Temp Dewpoint Dewpoint Depression Visibility Wind Speed Wind Dir Waves Ship Positions

Ventura

Last reported at 2017-Apr-25 14:30 UTC. Time now 2017-Apr-25 14:44 UTC.
Position N 48°37' W 005°16'.

Length 289 m; draft 8.6 m.

Type: Passenger vessel. MMSI: 310562000.

Date/timePositionNaut miles runAvg speedWind from/ knotsBaromVisibWave heightAir tempDewpointWater temp
2017-Apr-25 14:30N 48°37' W 005°16'31919.3
2017-Apr-24 22:00N 44°00' W 009°06'19718.3 270 / 101012.610.8 14.3 9.513.5
2017-Apr-24 11:13N 40°46' W 009°50'419.4
2017-Apr-24 11:00N 40°42' W 009°51'1019.6
2017-Apr-24 10:30N 40°32' W 009°51'1119.7
2017-Apr-24 09:58N 40°21' W 009°51'919.8
2017-Apr-24 09:30N 40°12' W 009°51'1019.8
2017-Apr-24 09:00N 40°02' W 009°51'918.5
2017-Apr-24 08:30N 39°53' W 009°50'917.6
2017-Apr-24 08:01N 39°44' W 009°50'1019.5
2017-Apr-24 07:30N 39°35' W 009°51'1019.6
2017-Apr-24 07:00N 39°25' W 009°51'1019.4
2017-Apr-24 06:31N 39°15' W 009°51'1019.6
2017-Apr-24 06:01N 39°05' W 009°51'1019.5
2017-Apr-24 05:30N 38°56' W 009°51'1019.3
2017-Apr-24 05:00N 38°46' W 009°51'1019.6
2017-Apr-24 04:31N 38°36' W 009°49'1019.7
2017-Apr-24 04:01N 38°27' W 009°46'1019.8
2017-Apr-24 03:31N 38°17' W 009°42'1020.0
2017-Apr-24 03:01N 38°08' W 009°39'1019.8
2017-Apr-24 02:31N 37°58' W 009°36'1020.3
2017-Apr-24 02:00N 37°48' W 009°32'1020.2
2017-Apr-24 01:31N 37°38' W 009°30'1020.4
2017-Apr-24 01:01N 37°28' W 009°28'1020.4
2017-Apr-24 00:31N 37°18' W 009°25'1020.3
2017-Apr-24 00:01N 37°08' W 009°22'1020.2
2017-Apr-23 23:31N 36°58' W 009°20'1019.4
2017-Apr-23 23:01N 36°50' W 009°15'1019.4
2017-Apr-23 22:31N 36°45' W 009°05'1020.0
2017-Apr-23 22:01N 36°42' W 008°53'1019.9
2017-Apr-23 21:31N 36°39' W 008°41'1019.9
2017-Apr-23 21:01N 36°35' W 008°30'1019.8
2017-Apr-23 20:31N 36°33' W 008°18'1019.9
2017-Apr-23 19:59N 36°30' W 008°05'11919.7
2017-Apr-23 13:56N 35°58' W 005°43'818.4
2017-Apr-23 13:30N 35°59' W 005°34'917.6
2017-Apr-23 13:01N 36°03' W 005°24'611.8
2017-Apr-23 12:30N 36°09' W 005°22'0 0.4
2017-Apr-23 12:00N 36°09' W 005°22'0 0.0
2017-Apr-23 11:30N 36°09' W 005°22'0 0.0
2017-Apr-23 11:00N 36°09' W 005°22'0 0.0
2017-Apr-23 10:30N 36°09' W 005°22'0 0.0
2017-Apr-23 10:00N 36°09' W 005°22'0 0.0
2017-Apr-23 09:30N 36°09' W 005°22'0 0.0
2017-Apr-23 09:00N 36°09' W 005°22'0 0.0
2017-Apr-23 08:30N 36°09' W 005°22'0 0.0
2017-Apr-23 08:00N 36°09' W 005°22'0 0.0
2017-Apr-23 07:30N 36°09' W 005°22'0 0.0
2017-Apr-23 07:00N 36°09' W 005°22'0 0.0
2017-Apr-23 06:30N 36°09' W 005°22'0 0.0
2017-Apr-23 06:00N 36°09' W 005°22'0 0.0
2017-Apr-23 05:30N 36°09' W 005°22'1 1.3
2017-Apr-23 05:00N 36°08' W 005°22'4 7.2
2017-Apr-23 04:30N 36°05' W 005°20'816.8
2017-Apr-23 04:00N 36°09' W 005°11'917.7
2017-Apr-23 03:30N 36°14' W 005°02'21111.9
2017-Apr-22 09:44N 37°30' W 000°56'417.8
2017-Apr-22 09:30N 37°30' W 000°50'919.0
2017-Apr-22 09:00N 37°30' W 000°39'1019.4
2017-Apr-22 08:31N 37°29' W 000°27'1121.5
2017-Apr-22 08:00N 37°30' W 000°13'65821.1
2017-Apr-21 00:52N 36°45' E 013°30'822.4
2017-Apr-21 00:30N 36°43' E 013°40'1121.9
2017-Apr-21 00:00N 36°39' E 013°53'1121.6
2017-Apr-20 23:30N 36°37' E 014°06'1121.7
2017-Apr-20 23:00N 36°34' E 014°19'1121.7
2017-Apr-20 22:30N 36°30' E 014°32'1121.5
2017-Apr-20 22:00N 36°27' E 014°45'40816.0
2017-Apr-19 20:32N 36°22' E 023°12'64 2.5
2017-Apr-18 19:21N 37°19' E 023°48'412.8
2017-Apr-18 19:00N 37°23' E 023°47'612.8
2017-Apr-18 18:30N 37°29' E 023°46'612.6
2017-Apr-18 18:00N 37°35' E 023°44'613.0
2017-Apr-18 17:30N 37°41' E 023°41'612.0
2017-Apr-18 17:00N 37°47' E 023°38'5 9.2
2017-Apr-18 16:30N 37°51' E 023°36'5 9.5
2017-Apr-18 16:00N 37°56' E 023°37'1 2.3
2017-Apr-18 15:29N 37°56' E 023°38'0 0.0
2017-Apr-18 14:59N 37°56' E 023°38'0 0.0
2017-Apr-18 14:29N 37°56' E 023°38'0 0.0
2017-Apr-18 13:29N 37°56' E 023°38'0 0.0
2017-Apr-18 12:59N 37°56' E 023°38'0 0.0
2017-Apr-18 12:29N 37°56' E 023°38'0 0.0
2017-Apr-18 11:59N 37°56' E 023°38'0 0.0
2017-Apr-18 11:29N 37°56' E 023°38'0 0.0
2017-Apr-18 10:59N 37°56' E 023°38'0 0.0
2017-Apr-18 10:29N 37°56' E 023°38'0 0.0
2017-Apr-18 09:59N 37°56' E 023°38'0 0.0
2017-Apr-18 09:29N 37°56' E 023°38'0 0.0
2017-Apr-18 08:55N 37°56' E 023°38'0 0.0
2017-Apr-18 08:25N 37°56' E 023°38'0 0.0
2017-Apr-18 07:55N 37°56' E 023°38'0 0.0
2017-Apr-18 07:29N 37°56' E 023°38'0 0.0
2017-Apr-18 06:59N 37°56' E 023°38'0 0.0
2017-Apr-18 06:29N 37°56' E 023°38'0 0.0
2017-Apr-18 05:59N 37°56' E 023°38'0 0.0
2017-Apr-18 05:29N 37°56' E 023°38'0 0.0
2017-Apr-18 04:59N 37°56' E 023°38'0 0.0
2017-Apr-18 04:29N 37°56' E 023°38'0 0.4
2017-Apr-18 04:00N 37°56' E 023°38'1 2.6
2017-Apr-18 03:31N 37°56' E 023°37'1 1.5
2017-Apr-18 03:00N 37°55' E 023°37'5 9.3
2017-Apr-18 02:30N 37°51' E 023°39'714.3
2017-Apr-18 02:00N 37°45' E 023°43'713.3
2017-Apr-18 01:31N 37°38' E 023°46'713.8
2017-Apr-18 01:00N 37°31' E 023°47'713.9
2017-Apr-18 00:30N 37°25' E 023°48'713.5
2017-Apr-17 23:59N 37°17' E 023°49'613.7
2017-Apr-17 23:30N 37°14' E 023°55'713.7
2017-Apr-17 22:59N 37°09' E 024°02'713.5
2017-Apr-17 22:29N 37°05' E 024°09'2214.5
2017-Apr-17 21:00N 37°06' E 024°36'1213.5 270 / 141010.310.8 17.013.516.8
2017-Apr-17 20:04N 37°12' E 024°50'114.4
2017-Apr-17 20:00N 37°12' E 024°51'714.4
2017-Apr-17 19:30N 37°16' E 024°59'713.5
2017-Apr-17 19:00N 37°20' E 025°06'713.8
2017-Apr-17 18:30N 37°26' E 025°08'612.5
2017-Apr-17 18:00N 37°28' E 025°16'3 5.5
2017-Apr-17 17:30N 37°28' E 025°19'0 0.0
2017-Apr-17 17:00N 37°28' E 025°19'0 0.0
2017-Apr-17 16:30N 37°28' E 025°19'0 0.0
2017-Apr-17 15:54N 37°28' E 025°19'0 0.0
2017-Apr-17 15:27N 37°28' E 025°19'0 0.0
2017-Apr-17 15:00N 37°28' E 025°19'0 0.0
2017-Apr-17 13:51N 37°28' E 025°19'0 0.0
2017-Apr-17 13:30N 37°28' E 025°19'0 0.0
2017-Apr-17 13:00N 37°28' E 025°19'0 0.0
2017-Apr-17 12:27N 37°28' E 025°19'0 0.0
2017-Apr-17 11:54N 37°28' E 025°19'0 0.0
2017-Apr-17 11:21N 37°28' E 025°19'0 0.0
2017-Apr-17 11:00N 37°28' E 025°19'0 0.0
2017-Apr-17 10:30N 37°28' E 025°19'0 0.0
2017-Apr-17 10:00N 37°28' E 025°19'0 0.0
2017-Apr-17 09:30N 37°28' E 025°19'0 0.0
2017-Apr-17 09:00N 37°28' E 025°19'0 0.0
2017-Apr-17 08:30N 37°28' E 025°19'0 0.0
2017-Apr-17 08:00N 37°28' E 025°19'0 0.0
2017-Apr-17 07:30N 37°28' E 025°19'0 0.0
2017-Apr-17 07:00N 37°28' E 025°19'0 0.0
2017-Apr-17 06:27N 37°28' E 025°19'0 0.0
2017-Apr-17 05:54N 37°28' E 025°19'0 0.0
2017-Apr-17 05:30N 37°28' E 025°19'0 0.0
2017-Apr-17 05:00N 37°28' E 025°19'0 0.0
2017-Apr-17 04:30N 37°28' E 025°19'1 2.2
2017-Apr-17 04:00N 37°27' E 025°18'510.1
2017-Apr-17 03:30N 37°28' E 025°12'4 9.0
2017-Apr-17 03:00N 37°25' E 025°08'510.0
2017-Apr-17 02:31N 37°20' E 025°06'510.3
2017-Apr-17 02:00N 37°16' E 025°02'510.3
2017-Apr-17 01:31N 37°11' E 024°60'510.9
2017-Apr-17 01:01N 37°07' E 024°56'  
Track history (hours):
 
Tides and Currents Weather Stations Pressure Air Temp Water Temp Dewpoint Dewpoint Depression Visibility Wind Speed Wind Dir Waves Ship Positions

Ventura

Last reported at 2017-Apr-25 14:30 UTC. Time now 2017-Apr-25 14:44 UTC.
Position N 48°37' W 005°16'.

Length 289 m; draft 8.6 m.

Type: Passenger vessel. MMSI: 310562000.

Date/timePositionNaut miles runAvg speedWind from/ knotsBaromVisibWave heightAir tempDewpointWater temp
2017-Apr-25 14:30N 48°37' W 005°16'31919.3
2017-Apr-24 22:00N 44°00' W 009°06'19718.3 270 / 101012.610.8 14.3 9.513.5
2017-Apr-24 11:13N 40°46' W 009°50'419.4
2017-Apr-24 11:00N 40°42' W 009°51'1019.6
2017-Apr-24 10:30N 40°32' W 009°51'1119.7
2017-Apr-24 09:58N 40°21' W 009°51'919.8
2017-Apr-24 09:30N 40°12' W 009°51'1019.8
2017-Apr-24 09:00N 40°02' W 009°51'918.5
2017-Apr-24 08:30N 39°53' W 009°50'917.6
2017-Apr-24 08:01N 39°44' W 009°50'1019.5
2017-Apr-24 07:30N 39°35' W 009°51'1019.6
2017-Apr-24 07:00N 39°25' W 009°51'1019.4
2017-Apr-24 06:31N 39°15' W 009°51'1019.6
2017-Apr-24 06:01N 39°05' W 009°51'1019.5
2017-Apr-24 05:30N 38°56' W 009°51'1019.3
2017-Apr-24 05:00N 38°46' W 009°51'1019.6
2017-Apr-24 04:31N 38°36' W 009°49'1019.7
2017-Apr-24 04:01N 38°27' W 009°46'1019.8
2017-Apr-24 03:31N 38°17' W 009°42'1020.0
2017-Apr-24 03:01N 38°08' W 009°39'1019.8
2017-Apr-24 02:31N 37°58' W 009°36'1020.3
2017-Apr-24 02:00N 37°48' W 009°32'1020.2
2017-Apr-24 01:31N 37°38' W 009°30'1020.4
2017-Apr-24 01:01N 37°28' W 009°28'1020.4
2017-Apr-24 00:31N 37°18' W 009°25'1020.3
2017-Apr-24 00:01N 37°08' W 009°22'1020.2
2017-Apr-23 23:31N 36°58' W 009°20'1019.4
2017-Apr-23 23:01N 36°50' W 009°15'1019.4
2017-Apr-23 22:31N 36°45' W 009°05'1020.0
2017-Apr-23 22:01N 36°42' W 008°53'1019.9
2017-Apr-23 21:31N 36°39' W 008°41'1019.9
2017-Apr-23 21:01N 36°35' W 008°30'1019.8
2017-Apr-23 20:31N 36°33' W 008°18'1019.9
2017-Apr-23 19:59N 36°30' W 008°05'11919.7
2017-Apr-23 13:56N 35°58' W 005°43'818.4
2017-Apr-23 13:30N 35°59' W 005°34'917.6
2017-Apr-23 13:01N 36°03' W 005°24'611.8
2017-Apr-23 12:30N 36°09' W 005°22'0 0.4
2017-Apr-23 12:00N 36°09' W 005°22'0 0.0
2017-Apr-23 11:30N 36°09' W 005°22'0 0.0
2017-Apr-23 11:00N 36°09' W 005°22'0 0.0
2017-Apr-23 10:30N 36°09' W 005°22'0 0.0
2017-Apr-23 10:00N 36°09' W 005°22'0 0.0
2017-Apr-23 09:30N 36°09' W 005°22'0 0.0
2017-Apr-23 09:00N 36°09' W 005°22'0 0.0
2017-Apr-23 08:30N 36°09' W 005°22'0 0.0
2017-Apr-23 08:00N 36°09' W 005°22'0 0.0
2017-Apr-23 07:30N 36°09' W 005°22'0 0.0
2017-Apr-23 07:00N 36°09' W 005°22'0 0.0
2017-Apr-23 06:30N 36°09' W 005°22'0 0.0
2017-Apr-23 06:00N 36°09' W 005°22'0 0.0
2017-Apr-23 05:30N 36°09' W 005°22'1 1.3
2017-Apr-23 05:00N 36°08' W 005°22'4 7.2
2017-Apr-23 04:30N 36°05' W 005°20'816.8
2017-Apr-23 04:00N 36°09' W 005°11'917.7
2017-Apr-23 03:30N 36°14' W 005°02'21111.9
2017-Apr-22 09:44N 37°30' W 000°56'417.8
2017-Apr-22 09:30N 37°30' W 000°50'919.0
2017-Apr-22 09:00N 37°30' W 000°39'1019.4
2017-Apr-22 08:31N 37°29' W 000°27'1121.5
2017-Apr-22 08:00N 37°30' W 000°13'65821.1
2017-Apr-21 00:52N 36°45' E 013°30'822.4
2017-Apr-21 00:30N 36°43' E 013°40'1121.9
2017-Apr-21 00:00N 36°39' E 013°53'1121.6
2017-Apr-20 23:30N 36°37' E 014°06'1121.7
2017-Apr-20 23:00N 36°34' E 014°19'1121.7
2017-Apr-20 22:30N 36°30' E 014°32'1121.5
2017-Apr-20 22:00N 36°27' E 014°45'40816.0
2017-Apr-19 20:32N 36°22' E 023°12'64 2.5
2017-Apr-18 19:21N 37°19' E 023°48'412.8
2017-Apr-18 19:00N 37°23' E 023°47'612.8
2017-Apr-18 18:30N 37°29' E 023°46'612.6
2017-Apr-18 18:00N 37°35' E 023°44'613.0
2017-Apr-18 17:30N 37°41' E 023°41'612.0
2017-Apr-18 17:00N 37°47' E 023°38'5 9.2
2017-Apr-18 16:30N 37°51' E 023°36'5 9.5
2017-Apr-18 16:00N 37°56' E 023°37'1 2.3
2017-Apr-18 15:29N 37°56' E 023°38'0 0.0
2017-Apr-18 14:59N 37°56' E 023°38'0 0.0
2017-Apr-18 14:29N 37°56' E 023°38'0 0.0
2017-Apr-18 13:29N 37°56' E 023°38'0 0.0
2017-Apr-18 12:59N 37°56' E 023°38'0 0.0
2017-Apr-18 12:29N 37°56' E 023°38'0 0.0
2017-Apr-18 11:59N 37°56' E 023°38'0 0.0
2017-Apr-18 11:29N 37°56' E 023°38'0 0.0
2017-Apr-18 10:59N 37°56' E 023°38'0 0.0
2017-Apr-18 10:29N 37°56' E 023°38'0 0.0
2017-Apr-18 09:59N 37°56' E 023°38'0 0.0
2017-Apr-18 09:29N 37°56' E 023°38'0 0.0
2017-Apr-18 08:55N 37°56' E 023°38'0 0.0
2017-Apr-18 08:25N 37°56' E 023°38'0 0.0
2017-Apr-18 07:55N 37°56' E 023°38'0 0.0
2017-Apr-18 07:29N 37°56' E 023°38'0 0.0
2017-Apr-18 06:59N 37°56' E 023°38'0 0.0
2017-Apr-18 06:29N 37°56' E 023°38'0 0.0
2017-Apr-18 05:59N 37°56' E 023°38'0 0.0
2017-Apr-18 05:29N 37°56' E 023°38'0 0.0
2017-Apr-18 04:59N 37°56' E 023°38'0 0.0
2017-Apr-18 04:29N 37°56' E 023°38'0 0.4
2017-Apr-18 04:00N 37°56' E 023°38'1 2.6
2017-Apr-18 03:31N 37°56' E 023°37'1 1.5
2017-Apr-18 03:00N 37°55' E 023°37'5 9.3
2017-Apr-18 02:30N 37°51' E 023°39'714.3
2017-Apr-18 02:00N 37°45' E 023°43'713.3
2017-Apr-18 01:31N 37°38' E 023°46'713.8
2017-Apr-18 01:00N 37°31' E 023°47'713.9
2017-Apr-18 00:30N 37°25' E 023°48'713.5
2017-Apr-17 23:59N 37°17' E 023°49'613.7
2017-Apr-17 23:30N 37°14' E 023°55'713.7
2017-Apr-17 22:59N 37°09' E 024°02'713.5
2017-Apr-17 22:29N 37°05' E 024°09'2214.5
2017-Apr-17 21:00N 37°06' E 024°36'1213.5 270 / 141010.310.8 17.013.516.8
2017-Apr-17 20:04N 37°12' E 024°50'114.4
2017-Apr-17 20:00N 37°12' E 024°51'714.4
2017-Apr-17 19:30N 37°16' E 024°59'713.5
2017-Apr-17 19:00N 37°20' E 025°06'713.8
2017-Apr-17 18:30N 37°26' E 025°08'612.5
2017-Apr-17 18:00N 37°28' E 025°16'3 5.5
2017-Apr-17 17:30N 37°28' E 025°19'0 0.0
2017-Apr-17 17:00N 37°28' E 025°19'0 0.0
2017-Apr-17 16:30N 37°28' E 025°19'0 0.0
2017-Apr-17 15:54N 37°28' E 025°19'0 0.0
2017-Apr-17 15:27N 37°28' E 025°19'0 0.0
2017-Apr-17 15:00N 37°28' E 025°19'0 0.0
2017-Apr-17 13:51N 37°28' E 025°19'0 0.0
2017-Apr-17 13:30N 37°28' E 025°19'0 0.0
2017-Apr-17 13:00N 37°28' E 025°19'0 0.0
2017-Apr-17 12:27N 37°28' E 025°19'0 0.0
2017-Apr-17 11:54N 37°28' E 025°19'0 0.0
2017-Apr-17 11:21N 37°28' E 025°19'0 0.0
2017-Apr-17 11:00N 37°28' E 025°19'0 0.0
2017-Apr-17 10:30N 37°28' E 025°19'0 0.0
2017-Apr-17 10:00N 37°28' E 025°19'0 0.0
2017-Apr-17 09:30N 37°28' E 025°19'0 0.0
2017-Apr-17 09:00N 37°28' E 025°19'0 0.0
2017-Apr-17 08:30N 37°28' E 025°19'0 0.0
2017-Apr-17 08:00N 37°28' E 025°19'0 0.0
2017-Apr-17 07:30N 37°28' E 025°19'0 0.0
2017-Apr-17 07:00N 37°28' E 025°19'0 0.0
2017-Apr-17 06:27N 37°28' E 025°19'0 0.0
2017-Apr-17 05:54N 37°28' E 025°19'0 0.0
2017-Apr-17 05:30N 37°28' E 025°19'0 0.0
2017-Apr-17 05:00N 37°28' E 025°19'0 0.0
2017-Apr-17 04:30N 37°28' E 025°19'1 2.2
2017-Apr-17 04:00N 37°27' E 025°18'510.1
2017-Apr-17 03:30N 37°28' E 025°12'4 9.0
2017-Apr-17 03:00N 37°25' E 025°08'510.0
2017-Apr-17 02:31N 37°20' E 025°06'510.3
2017-Apr-17 02:00N 37°16' E 025°02'510.3
2017-Apr-17 01:31N 37°11' E 024°60'510.9
2017-Apr-17 01:01N 37°07' E 024°56'  

Dump ship's entire track history